Location: Miles
(41.4492°N, 81.6087°W)
Time: 22:56:51
(UTC+00:00)

Courier 1B Rocket - Pass Details

Date: 17 September 2024
Orbit: 920 x 1201 km, 28.2° (Epoch: 09 October)

Event Time Altitude Azimuth Distance (km) Brightness Sun altitude
Rises 23:05:52 0° 252° (WSW) 3,719 9.9 3.9°
Reaches altitude 10° 23:08:57 10° 240° (WSW) 2,815 8.6 3.4°
Maximum altitude 23:14:25 25° 187° (S) 1,987 6.8 2.3°
Drops below altitude 10° 23:20:11 10° 135° (SE) 2,981 7.1 1.2°
Sets 23:23:33 0° 123° (ESE) 3,984 7.7 0.6°
